Time,TemperatureF,DewpointF,PressureIn,WindDirection,WindDirectionDegrees,WindSpeedMPH,WindSpeedGustMPH,Humidity,HourlyPrecipIn,Conditions,Clouds,dailyrainin,SolarRadiationWatts/m^2,SoftwareType,DateUTC
2013-02-07 00:00:00,27.7,0.3,29.91,ESE,107,5.0,19.0,30,0.00,,,0.00,0000,Weather View 32 v70,2013-02-07 05:00:00,
2013-02-07 00:01:00,27.9,-0.2,29.91,East,101,4.0,19.0,29,0.00,,,0.00,0000,Weather View 32 v70,2013-02-07 05:01:00,
2013-02-07 00:06:00,27.7,-0.4,29.91,East,101,4.0,19.0,29,0.00,,,0.00,0000,Weather View 32 v70,2013-02-07 05:06:00,
2013-02-07 00:11:00,27.8,-0.3,29.92,East,96,5.0,19.0,29,0.00,,,0.00,0000,Weather View 32 v70,2013-02-07 05:11:00,
2013-02-07 00:16:00,27.5,0.1,29.91,East,96,5.0,19.0,30,0.00,,,0.00,0000,Weather View 32 v70,2013-02-07 05:16:00,
2013-02-07 00:21:00,27.4,0.0,29.92,ESE,107,6.0,19.0,30,0.00,,,0.00,0000,Weather View 32 v70,2013-02-07 05:21:00,
2013-02-07 00:26:00,27.6,5.3,29.92,East,96,2.0,14.0,38,0.00,,,0.00,0000,Weather View 32 v70,2013-02-07 05:26:00,
2013-02-07 00:31:00,26.8,0.9,29.93,East,101,3.0,14.0,32,0.00,,,0.00,0000,Weather View 32 v70,2013-02-07 05:31:00,
2013-02-07 00:36:00,26.9,-0.4,29.93,East,101,4.0,14.0,30,0.00,,,0.00,0000,Weather View 32 v70,2013-02-07 05:36:00,
2013-02-07 00:41:00,26.8,-0.5,29.93,East,101,6.0,13.0,30,0.00,,,0.00,0000,Weather View 32 v70,2013-02-07 05:41:00,
2013-02-07 00:46:00,27.0,-0.3,29.93,East,90,3.0,13.0,30,0.00,,,0.00,0000,Weather View 32 v70,2013-02-07 05:46:00,
2013-02-07 00:51:00,27.4,1.4,29.93,East,96,5.0,10.0,32,0.00,,,0.00,0000,Weather View 32 v70,2013-02-07 05:51:00,
2013-02-07 00:56:00,27.0,-1.0,29.93,East,96,6.0,9.0,29,0.00,,,0.00,0000,Weather View 32 v70,2013-02-07 05:56:00,
2013-02-07 01:01:00,26.8,-0.5,29.93,East,96,4.0,9.0,30,0.00,,,0.00,0000,Weather View 32 v70,2013-02-07 06:01:00,
2013-02-07 01:06:00,27.0,0.4,29.93,East,96,5.0,9.0,31,0.00,,,0.00,0000,Weather View 32 v70,2013-02-07 06:06:00,
2013-02-07 01:11:00,26.7,-0.6,29.94,East,96,4.0,9.0,30,0.00,,,0.00,0000,Weather View 32 v70,2013-02-07 06:11:00,
2013-02-07 01:16:00,26.9,1.0,29.93,East,96,5.0,9.0,32,0.00,,,0.00,0000,Weather View 32 v70,2013-02-07 06:16:00,
2013-02-07 01:21:00,26.9,-0.4,29.94,East,96,7.0,9.0,30,0.00,,,0.00,0000,Weather View 32 v70,2013-02-07 06:21:00,
2013-02-07 01:26:00,26.7,-0.6,29.93,East,96,6.0,9.0,30,0.00,,,0.00,0000,Weather View 32 v70,2013-02-07 06:26:00,
2013-02-07 01:31:00,26.6,0.0,29.93,East,96,6.0,9.0,31,0.00,,,0.00,0000,Weather View 32 v70,2013-02-07 06:31:00,
2013-02-07 01:36:00,26.6,0.7,29.94,East,96,6.0,9.0,32,0.00,,,0.00,0000,Weather View 32 v70,2013-02-07 06:36:00,
2013-02-07 01:41:00,26.1,-0.4,29.94,East,96,7.0,9.0,31,0.00,,,0.00,0000,Weather View 32 v70,2013-02-07 06:41:00,
2013-02-07 01:46:00,26.2,0.4,29.95,East,96,7.0,9.0,32,0.00,,,0.00,0000,Weather View 32 v70,2013-02-07 06:46:00,
2013-02-07 01:51:00,26.0,0.2,29.95,East,101,5.0,9.0,32,0.00,,,0.00,0000,Weather View 32 v70,2013-02-07 06:51:00,
2013-02-07 01:56:00,26.0,0.8,29.95,East,96,7.0,9.0,33,0.00,,,0.00,0000,Weather View 32 v70,2013-02-07 06:56:00,
2013-02-07 02:01:00,26.0,1.5,29.96,East,90,5.0,9.0,34,0.00,,,0.00,0000,Weather View 32 v70,2013-02-07 07:01:00,
2013-02-07 02:06:00,25.8,1.3,29.96,East,101,7.0,10.0,34,0.00,,,0.00,0000,Weather View 32 v70,2013-02-07 07:06:00,
2013-02-07 02:11:00,25.9,3.8,29.96,East,96,7.0,10.0,38,0.00,,,0.00,0000,Weather View 32 v70,2013-02-07 07:11:00,
2013-02-07 02:16:00,25.7,1.2,29.95,East,96,6.0,10.0,34,0.00,,,0.00,0000,Weather View 32 v70,2013-02-07 07:16:00,
2013-02-07 02:21:00,25.8,1.3,29.95,East,96,4.0,10.0,34,0.00,,,0.00,0000,Weather View 32 v70,2013-02-07 07:21:00,
2013-02-07 02:26:00,25.8,2.5,29.95,East,96,4.0,10.0,36,0.00,,,0.00,0000,Weather View 32 v70,2013-02-07 07:26:00,
2013-02-07 02:31:00,25.5,1.6,29.95,East,96,5.0,10.0,35,0.00,,,0.00,0000,Weather View 32 v70,2013-02-07 07:31:00,
2013-02-07 02:36:00,25.3,1.5,29.95,East,96,6.0,10.0,35,0.00,,,0.00,0000,Weather View 32 v70,2013-02-07 07:36:00,
2013-02-07 02:41:00,25.8,3.7,29.95,East,101,3.0,10.0,38,0.00,,,0.00,0000,Weather View 32 v70,2013-02-07 07:41:00,
2013-02-07 02:46:00,25.2,1.4,29.95,East,96,3.0,10.0,35,0.00,,,0.00,0000,Weather View 32 v70,2013-02-07 07:46:00,
2013-02-07 02:51:00,25.5,3.4,29.95,East,96,3.0,10.0,38,0.00,,,0.00,0000,Weather View 32 v70,2013-02-07 07:51:00,
2013-02-07 03:00:00,24.9,1.7,29.95,East,96,2.0,10.0,36,0.00,,,0.00,0000,Weather View 32 v70,2013-02-07 08:00:00,
2013-02-07 03:05:00,25.0,3.0,29.96,East,96,2.0,10.0,38,0.00,,,0.00,0000,Weather View 32 v70,2013-02-07 08:05:00,
2013-02-07 03:10:00,25.1,1.9,29.96,East,96,3.0,10.0,36,0.00,,,0.00,0000,Weather View 32 v70,2013-02-07 08:10:00,
2013-02-07 03:15:00,24.8,3.9,29.96,East,96,4.0,10.0,40,0.00,,,0.00,0000,Weather View 32 v70,2013-02-07 08:15:00,
2013-02-07 03:20:00,24.6,2.6,29.97,East,101,3.0,10.0,38,0.00,,,0.00,0000,Weather View 32 v70,2013-02-07 08:20:00,
2013-02-07 03:25:00,24.3,1.8,29.97,East,96,4.0,10.0,37,0.00,,,0.00,0000,Weather View 32 v70,2013-02-07 08:25:00,
2013-02-07 03:30:00,25.2,9.2,29.97,East,96,5.0,10.0,50,0.00,,,0.00,0000,Weather View 32 v70,2013-02-07 08:30:00,
2013-02-07 03:35:00,24.4,1.9,29.97,East,96,3.0,8.0,37,0.00,,,0.00,0000,Weather View 32 v70,2013-02-07 08:35:00,
2013-02-07 03:40:00,24.3,2.3,29.97,East,96,3.0,7.0,38,0.00,,,0.00,0000,Weather View 32 v70,2013-02-07 08:40:00,
2013-02-07 03:45:00,24.3,3.5,29.97,East,96,3.0,7.0,40,0.00,,,0.00,0000,Weather View 32 v70,2013-02-07 08:45:00,
2013-02-07 03:50:00,24.1,2.7,29.97,East,96,3.0,6.0,39,0.00,,,0.00,0000,Weather View 32 v70,2013-02-07 08:50:00,
2013-02-07 03:55:00,24.1,3.8,29.98,East,101,1.0,6.0,41,0.00,,,0.00,0000,Weather View 32 v70,2013-02-07 08:55:00,
2013-02-07 04:00:00,24.1,3.3,29.98,East,101,2.0,6.0,40,0.00,,,0.00,0000,Weather View 32 v70,2013-02-07 09:00:00,
2013-02-07 04:05:00,24.4,4.1,29.98,East,96,3.0,6.0,41,0.00,,,0.00,0000,Weather View 32 v70,2013-02-07 09:05:00,
2013-02-07 04:10:00,24.8,4.4,29.98,East,101,3.0,6.0,41,0.00,,,0.00,0000,Weather View 32 v70,2013-02-07 09:10:00,
2013-02-07 04:15:00,24.6,4.7,29.98,East,101,3.0,6.0,42,0.00,,,0.00,0000,Weather View 32 v70,2013-02-07 09:15:00,
2013-02-07 04:20:00,24.6,3.7,29.98,East,101,3.0,6.0,40,0.00,,,0.00,0000,Weather View 32 v70,2013-02-07 09:20:00,
2013-02-07 04:25:00,24.0,3.7,29.98,East,96,3.0,6.0,41,0.00,,,0.00,0000,Weather View 32 v70,2013-02-07 09:25:00,
2013-02-07 04:30:00,24.1,3.8,29.98,East,96,2.0,6.0,41,0.00,,,0.00,0000,Weather View 32 v70,2013-02-07 09:30:00,
2013-02-07 04:35:00,23.9,4.6,30.00,East,101,0.0,6.0,43,0.00,,,0.00,0000,Weather View 32 v70,2013-02-07 09:35:00,
2013-02-07 04:40:00,23.9,5.1,30.00,East,96,1.0,6.0,44,0.00,,,0.00,0000,Weather View 32 v70,2013-02-07 09:40:00,
2013-02-07 04:45:00,23.4,4.2,29.99,East,96,0.0,6.0,43,0.00,,,0.00,0000,Weather View 32 v70,2013-02-07 09:45:00,
2013-02-07 04:50:00,23.5,1.6,30.00,East,96,1.0,6.0,38,0.00,,,0.00,0000,Weather View 32 v70,2013-02-07 09:50:00,
2013-02-07 04:55:00,23.5,3.3,30.00,East,96,3.0,6.0,41,0.00,,,0.00,0000,Weather View 32 v70,2013-02-07 09:55:00,
2013-02-07 05:00:00,23.4,3.2,30.01,East,96,2.0,6.0,41,0.00,,,0.00,0000,Weather View 32 v70,2013-02-07 10:00:00,
2013-02-07 05:05:00,23.3,3.6,30.01,East,96,2.0,6.0,42,0.00,,,0.00,0000,Weather View 32 v70,2013-02-07 10:05:00,
2013-02-07 05:10:00,23.1,3.4,30.02,East,96,0.0,6.0,42,0.00,,,0.00,0000,Weather View 32 v70,2013-02-07 10:10:00,
2013-02-07 05:15:00,23.2,4.5,30.01,East,96,1.0,6.0,44,0.00,,,0.00,0000,Weather View 32 v70,2013-02-07 10:15:00,
2013-02-07 05:20:00,22.6,4.5,30.01,East,96,1.0,5.0,45,0.00,,,0.00,0000,Weather View 32 v70,2013-02-07 10:20:00,
2013-02-07 05:25:00,23.0,4.3,30.01,East,96,1.0,4.0,44,0.00,,,0.00,0000,Weather View 32 v70,2013-02-07 10:25:00,
2013-02-07 05:30:00,23.1,4.4,30.02,East,96,0.0,4.0,44,0.00,,,0.00,0000,Weather View 32 v70,2013-02-07 10:30:00,
2013-02-07 05:35:00,23.2,4.5,30.02,East,96,2.0,5.0,44,0.00,,,0.00,0000,Weather View 32 v70,2013-02-07 10:35:00,
2013-02-07 05:40:00,23.3,4.1,30.02,East,96,4.0,5.0,43,0.00,,,0.00,0000,Weather View 32 v70,2013-02-07 10:40:00,
2013-02-07 05:45:00,23.3,5.1,30.02,East,96,1.0,5.0,45,0.00,,,0.00,0000,Weather View 32 v70,2013-02-07 10:45:00,
2013-02-07 05:50:00,23.0,5.3,30.02,East,96,2.0,5.0,46,0.00,,,0.00,0000,Weather View 32 v70,2013-02-07 10:50:00,
2013-02-07 05:55:00,22.9,5.6,30.02,East,96,2.0,5.0,47,0.00,,,0.00,0000,Weather View 32 v70,2013-02-07 10:55:00,
2013-02-07 06:00:00,23.0,3.8,30.01,East,96,2.0,5.0,43,0.00,,,0.00,0000,Weather View 32 v70,2013-02-07 11:00:00,
2013-02-07 06:05:00,22.8,6.4,30.01,East,96,1.0,5.0,49,0.00,,,0.00,0000,Weather View 32 v70,2013-02-07 11:05:00,
2013-02-07 06:10:00,22.8,5.5,30.02,East,96,2.0,5.0,47,0.00,,,0.00,0000,Weather View 32 v70,2013-02-07 11:10:00,
2013-02-07 06:15:00,22.8,5.1,30.02,East,96,2.0,5.0,46,0.00,,,0.00,0000,Weather View 32 v70,2013-02-07 11:15:00,
2013-02-07 06:20:00,22.8,4.1,30.02,East,96,2.0,5.0,44,0.00,,,0.00,0000,Weather View 32 v70,2013-02-07 11:20:00,
2013-02-07 06:25:00,22.5,4.9,30.02,East,96,2.0,5.0,46,0.00,,,0.00,0000,Weather View 32 v70,2013-02-07 11:25:00,
2013-02-07 06:30:00,22.6,5.0,30.02,East,96,1.0,5.0,46,0.00,,,0.00,0000,Weather View 32 v70,2013-02-07 11:30:00,
2013-02-07 06:35:00,22.8,5.5,30.01,East,96,2.0,6.0,47,0.00,,,0.00,0000,Weather View 32 v70,2013-02-07 11:35:00,
2013-02-07 06:40:00,22.5,5.8,30.02,East,96,3.0,6.0,48,0.00,,,0.00,0000,Weather View 32 v70,2013-02-07 11:40:00,
2013-02-07 06:45:00,22.6,6.8,30.02,East,96,2.0,7.0,50,0.00,,,0.00,0000,Weather View 32 v70,2013-02-07 11:45:00,
2013-02-07 06:50:00,22.6,6.3,30.02,East,96,1.0,7.0,49,0.00,,,0.00,0000,Weather View 32 v70,2013-02-07 11:50:00,
2013-02-07 06:55:00,22.8,6.9,30.03,East,96,1.0,7.0,50,0.00,,,0.00,0000,Weather View 32 v70,2013-02-07 11:55:00,
2013-02-07 07:00:00,22.6,6.3,30.04,East,96,2.0,7.0,49,0.00,,,0.00,0000,Weather View 32 v70,2013-02-07 12:00:00,
2013-02-07 07:05:00,22.6,5.4,30.04,East,96,1.0,7.0,47,0.00,,,0.00,0000,Weather View 32 v70,2013-02-07 12:05:00,
2013-02-07 07:10:00,22.8,6.4,30.04,East,96,2.0,7.0,49,0.00,,,0.00,0000,Weather View 32 v70,2013-02-07 12:10:00,
2013-02-07 07:15:00,22.5,5.3,30.05,East,96,1.0,7.0,47,0.00,,,0.00,0000,Weather View 32 v70,2013-02-07 12:15:00,
2013-02-07 07:20:00,22.8,6.4,30.05,East,96,1.0,7.0,49,0.00,,,0.00,0008,Weather View 32 v70,2013-02-07 12:20:00,
2013-02-07 07:25:00,22.6,6.8,30.05,East,96,2.0,7.0,50,0.00,,,0.00,0008,Weather View 32 v70,2013-02-07 12:25:00,
2013-02-07 07:30:00,23.0,7.1,30.05,East,96,1.0,7.0,50,0.00,,,0.00,0016,Weather View 32 v70,2013-02-07 12:30:00,
2013-02-07 07:35:00,23.2,7.3,30.05,East,96,1.0,7.0,50,0.00,,,0.00,0024,Weather View 32 v70,2013-02-07 12:35:00,
2013-02-07 07:40:00,23.1,6.3,30.05,East,96,2.0,7.0,48,0.00,,,0.00,0024,Weather View 32 v70,2013-02-07 12:40:00,
2013-02-07 07:45:00,23.4,7.5,30.05,East,101,1.0,5.0,50,0.00,,,0.00,0032,Weather View 32 v70,2013-02-07 12:45:00,
2013-02-07 07:50:00,23.3,7.8,30.06,East,96,3.0,5.0,51,0.00,,,0.00,0032,Weather View 32 v70,2013-02-07 12:50:00,
2013-02-07 07:55:00,23.4,7.5,30.07,East,96,0.0,5.0,50,0.00,,,0.00,0040,Weather View 32 v70,2013-02-07 12:55:00,
2013-02-07 08:00:00,23.5,7.6,30.08,East,96,2.0,5.0,50,0.00,,,0.00,0048,Weather View 32 v70,2013-02-07 13:00:00,
2013-02-07 08:05:00,23.9,8.4,30.08,East,101,1.0,5.0,51,0.00,,,0.00,0056,Weather View 32 v70,2013-02-07 13:05:00,
2013-02-07 08:10:00,24.0,9.3,30.07,East,96,1.0,5.0,53,0.00,,,0.00,0056,Weather View 32 v70,2013-02-07 13:10:00,
2013-02-07 08:15:00,24.1,9.0,30.07,East,96,1.0,5.0,52,0.00,,,0.00,0064,Weather View 32 v70,2013-02-07 13:15:00,
2013-02-07 08:20:00,24.1,9.4,30.08,East,96,0.0,5.0,53,0.00,,,0.00,0072,Weather View 32 v70,2013-02-07 13:20:00,
2013-02-07 08:25:00,24.1,8.6,30.07,East,90,3.0,5.0,51,0.00,,,0.00,0080,Weather View 32 v70,2013-02-07 13:25:00,
2013-02-07 08:30:00,24.0,8.0,30.07,East,96,0.0,5.0,50,0.00,,,0.00,0088,Weather View 32 v70,2013-02-07 13:30:00,
2013-02-07 08:35:00,24.1,7.7,30.08,East,96,3.0,5.0,49,0.00,,,0.00,0096,Weather View 32 v70,2013-02-07 13:35:00,
2013-02-07 08:40:00,24.4,8.0,30.08,East,101,3.0,5.0,49,0.00,,,0.00,0096,Weather View 32 v70,2013-02-07 13:40:00,
2013-02-07 08:45:00,24.2,6.9,30.08,East,96,2.0,5.0,47,0.00,,,0.00,0112,Weather View 32 v70,2013-02-07 13:45:00,
2013-02-07 08:50:00,24.4,7.1,30.07,East,96,3.0,5.0,47,0.00,,,0.00,0112,Weather View 32 v70,2013-02-07 13:50:00,
2013-02-07 08:55:00,24.4,7.1,30.07,East,101,2.0,5.0,47,0.00,,,0.00,0128,Weather View 32 v70,2013-02-07 13:55:00,
2013-02-07 09:00:00,24.4,8.0,30.08,East,96,2.0,7.0,49,0.00,,,0.00,0128,Weather View 32 v70,2013-02-07 14:00:00,
2013-02-07 09:05:00,24.9,7.5,30.07,East,96,2.0,7.0,47,0.00,,,0.00,0128,Weather View 32 v70,2013-02-07 14:05:00,
2013-02-07 09:10:00,24.4,6.6,30.06,East,96,5.0,7.0,46,0.00,,,0.00,0136,Weather View 32 v70,2013-02-07 14:10:00,
2013-02-07 09:15:00,24.8,6.9,30.06,East,96,2.0,9.0,46,0.00,,,0.00,0152,Weather View 32 v70,2013-02-07 14:15:00,
2013-02-07 09:21:00,25.3,6.9,30.07,East,96,3.0,9.0,45,0.00,,,0.00,0168,Weather View 32 v70,2013-02-07 14:21:00,
2013-02-07 09:25:00,25.0,6.2,30.07,East,96,4.0,9.0,44,0.00,,,0.00,0176,Weather View 32 v70,2013-02-07 14:25:00,
2013-02-07 09:31:00,25.8,7.4,30.06,East,96,3.0,9.0,45,0.00,,,0.00,0184,Weather View 32 v70,2013-02-07 14:31:00,
2013-02-07 09:35:00,25.7,6.8,30.06,East,96,3.0,9.0,44,0.00,,,0.00,0184,Weather View 32 v70,2013-02-07 14:35:00,
2013-02-07 09:41:00,25.3,6.9,30.06,East,96,3.0,9.0,45,0.00,,,0.00,0200,Weather View 32 v70,2013-02-07 14:41:00,
2013-02-07 09:46:00,25.8,7.4,30.06,East,96,2.0,9.0,45,0.00,,,0.00,0216,Weather View 32 v70,2013-02-07 14:46:00,
2013-02-07 09:50:00,25.5,7.1,30.06,East,96,3.0,9.0,45,0.00,,,0.00,0248,Weather View 32 v70,2013-02-07 14:50:00,
2013-02-07 09:56:00,26.2,9.7,30.06,East,96,3.0,9.0,49,0.00,,,0.00,0232,Weather View 32 v70,2013-02-07 14:56:00,
2013-02-07 10:01:00,25.9,7.5,30.06,East,96,6.0,9.0,45,0.00,,,0.00,0216,Weather View 32 v70,2013-02-07 15:01:00,
2013-02-07 10:05:00,25.1,7.2,30.06,East,96,4.0,9.0,46,0.00,,,0.00,0200,Weather View 32 v70,2013-02-07 15:05:00,
2013-02-07 10:11:00,25.5,7.1,30.07,East,101,2.0,9.0,45,0.00,,,0.00,0216,Weather View 32 v70,2013-02-07 15:11:00,
2013-02-07 10:16:00,26.2,8.3,30.08,East,101,1.0,9.0,46,0.00,,,0.00,0232,Weather View 32 v70,2013-02-07 15:16:00,
2013-02-07 10:20:00,25.3,7.4,30.08,East,101,6.0,9.0,46,0.00,,,0.00,0232,Weather View 32 v70,2013-02-07 15:20:00,
2013-02-07 10:26:00,26.1,8.2,30.08,East,96,5.0,9.0,46,0.00,,,0.00,0248,Weather View 32 v70,2013-02-07 15:26:00,
2013-02-07 10:31:00,26.0,9.4,30.08,East,101,2.0,9.0,49,0.00,,,0.00,0232,Weather View 32 v70,2013-02-07 15:31:00,
2013-02-07 10:36:00,26.4,9.8,30.08,East,96,5.0,9.0,49,0.00,,,0.00,0216,Weather View 32 v70,2013-02-07 15:36:00,
2013-02-07 10:41:00,26.7,10.5,30.08,East,96,1.0,9.0,50,0.00,,,0.00,0200,Weather View 32 v70,2013-02-07 15:41:00,
2013-02-07 10:45:00,25.6,8.1,30.07,East,96,2.0,9.0,47,0.00,,,0.00,0192,Weather View 32 v70,2013-02-07 15:45:00,
2013-02-07 10:50:00,26.6,10.0,30.07,East,96,1.0,9.0,49,0.00,,,0.00,0192,Weather View 32 v70,2013-02-07 15:50:00,
2013-02-07 10:56:00,26.7,9.1,30.07,East,96,5.0,8.0,47,0.00,,,0.00,0192,Weather View 32 v70,2013-02-07 15:56:00,
2013-02-07 11:01:00,26.0,9.4,30.07,East,101,5.0,8.0,49,0.00,,,0.00,0192,Weather View 32 v70,2013-02-07 16:01:00,
2013-02-07 11:05:00,27.6,11.4,30.08,East,101,5.0,8.0,50,0.00,,,0.00,0208,Weather View 32 v70,2013-02-07 16:05:00,
2013-02-07 11:11:00,26.8,10.2,30.06,East,96,4.0,8.0,49,0.00,,,0.00,0232,Weather View 32 v70,2013-02-07 16:11:00,
2013-02-07 11:16:00,26.1,9.1,30.06,East,101,5.0,9.0,48,0.00,,,0.00,0256,Weather View 32 v70,2013-02-07 16:16:00,
2013-02-07 11:21:00,27.8,11.6,30.05,East,96,3.0,9.0,50,0.00,,,0.00,0256,Weather View 32 v70,2013-02-07 16:21:00,
2013-02-07 11:26:00,27.3,9.7,30.05,East,96,3.0,9.0,47,0.00,,,0.00,0208,Weather View 32 v70,2013-02-07 16:26:00,
2013-02-07 11:31:00,26.9,9.8,30.05,East,96,3.0,9.0,48,0.00,,,0.00,0168,Weather View 32 v70,2013-02-07 16:31:00,
2013-02-07 11:35:00,26.7,10.1,30.06,East,96,3.0,9.0,49,0.00,,,0.00,0200,Weather View 32 v70,2013-02-07 16:35:00,
2013-02-07 11:41:00,26.1,8.6,30.05,East,96,3.0,9.0,47,0.00,,,0.00,0232,Weather View 32 v70,2013-02-07 16:41:00,
2013-02-07 11:45:00,26.6,9.5,30.05,East,96,4.0,9.0,48,0.00,,,0.00,0232,Weather View 32 v70,2013-02-07 16:45:00,
2013-02-07 11:51:00,27.7,11.0,30.04,East,96,1.0,9.0,49,0.00,,,0.00,0240,Weather View 32 v70,2013-02-07 16:51:00,
2013-02-07 11:56:00,27.9,10.8,30.04,East,101,3.0,9.0,48,0.00,,,0.00,0256,Weather View 32 v70,2013-02-07 16:56:00,
2013-02-07 12:01:00,27.8,10.6,30.03,East,96,2.0,9.0,48,0.00,,,0.00,0280,Weather View 32 v70,2013-02-07 17:01:00,
2013-02-07 12:06:00,27.4,9.8,30.04,East,101,3.0,9.0,47,0.00,,,0.00,0280,Weather View 32 v70,2013-02-07 17:06:00,
2013-02-07 12:10:00,28.2,10.5,30.04,East,96,2.0,9.0,47,0.00,,,0.00,0296,Weather View 32 v70,2013-02-07 17:10:00,
2013-02-07 12:16:00,28.9,10.2,30.04,East,101,3.0,9.0,45,0.00,,,0.00,0288,Weather View 32 v70,2013-02-07 17:16:00,
2013-02-07 12:21:00,28.7,10.5,30.03,East,96,2.0,9.0,46,0.00,,,0.00,0320,Weather View 32 v70,2013-02-07 17:21:00,
2013-02-07 12:25:00,29.1,10.3,30.03,East,96,4.0,9.0,45,0.00,,,0.00,0288,Weather View 32 v70,2013-02-07 17:25:00,
2013-02-07 12:31:00,28.9,10.2,30.02,East,96,3.0,9.0,45,0.00,,,0.00,0280,Weather View 32 v70,2013-02-07 17:31:00,
2013-02-07 12:36:00,29.5,10.8,30.02,East,96,1.0,9.0,45,0.00,,,0.00,0272,Weather View 32 v70,2013-02-07 17:36:00,
2013-02-07 12:40:00,28.8,10.6,30.02,East,96,3.0,9.0,46,0.00,,,0.00,0232,Weather View 32 v70,2013-02-07 17:40:00,
2013-02-07 12:50:00,28.9,10.7,30.02,East,101,1.0,9.0,46,0.00,,,0.00,0272,Weather View 32 v70,2013-02-07 17:50:00,
2013-02-07 12:55:00,29.8,11.1,30.02,East,101,1.0,9.0,45,0.00,,,0.00,0280,Weather View 32 v70,2013-02-07 17:55:00,
2013-02-07 13:00:00,30.7,9.8,30.02,East,96,1.0,9.0,41,0.00,,,0.00,0280,Weather View 32 v70,2013-02-07 18:00:00,
2013-02-07 13:05:00,29.8,10.0,30.02,East,96,2.0,6.0,43,0.00,,,0.00,0288,Weather View 32 v70,2013-02-07 18:05:00,
2013-02-07 13:10:00,30.7,9.8,30.02,East,96,1.0,6.0,41,0.00,,,0.00,0288,Weather View 32 v70,2013-02-07 18:10:00,
2013-02-07 13:15:00,31.8,10.7,30.02,East,96,3.0,9.0,41,0.00,,,0.00,0328,Weather View 32 v70,2013-02-07 18:15:00,
2013-02-07 13:20:00,30.2,7.6,30.01,East,96,2.0,9.0,38,0.00,,,0.00,0320,Weather View 32 v70,2013-02-07 18:20:00,
2013-02-07 13:25:00,31.9,10.8,30.01,East,96,2.0,9.0,41,0.00,,,0.00,0320,Weather View 32 v70,2013-02-07 18:25:00,
2013-02-07 13:30:00,31.0,8.9,30.01,East,96,1.0,9.0,39,0.00,,,0.00,0328,Weather View 32 v70,2013-02-07 18:30:00,
2013-02-07 13:35:00,31.8,10.2,30.00,East,96,1.0,9.0,40,0.00,,,0.00,0288,Weather View 32 v70,2013-02-07 18:35:00,
2013-02-07 13:40:00,31.2,9.1,30.00,East,96,2.0,9.0,39,0.00,,,0.00,0304,Weather View 32 v70,2013-02-07 18:40:00,
2013-02-07 13:45:00,30.9,9.4,30.00,East,96,1.0,9.0,40,0.00,,,0.00,0280,Weather View 32 v70,2013-02-07 18:45:00,
2013-02-07 13:50:00,32.2,10.6,29.99,East,90,1.0,9.0,40,0.00,,,0.00,0312,Weather View 32 v70,2013-02-07 18:50:00,
2013-02-07 13:55:00,32.7,10.4,30.00,East,96,1.0,9.0,39,0.00,,,0.00,0280,Weather View 32 v70,2013-02-07 18:55:00,
2013-02-07 14:00:00,31.9,10.3,30.00,East,101,3.0,9.0,40,0.00,,,0.00,0264,Weather View 32 v70,2013-02-07 19:00:00,
2013-02-07 14:05:00,30.7,8.7,30.00,East,96,0.0,9.0,39,0.00,,,0.00,0248,Weather View 32 v70,2013-02-07 19:05:00,
2013-02-07 14:11:00,30.5,8.5,30.00,East,101,2.0,9.0,39,0.00,,,0.00,0272,Weather View 32 v70,2013-02-07 19:11:00,
2013-02-07 14:16:00,31.5,8.8,29.99,East,96,0.0,4.0,38,0.00,,,0.00,0248,Weather View 32 v70,2013-02-07 19:16:00,
2013-02-07 14:21:00,30.1,8.1,29.99,East,96,4.0,5.0,39,0.00,,,0.00,0224,Weather View 32 v70,2013-02-07 19:21:00,
2013-02-07 14:26:00,29.6,7.7,29.99,East,101,4.0,5.0,39,0.00,,,0.00,0216,Weather View 32 v70,2013-02-07 19:26:00,
2013-02-07 14:31:00,29.8,7.9,29.99,East,96,4.0,6.0,39,0.00,,,0.00,0192,Weather View 32 v70,2013-02-07 19:31:00,
2013-02-07 14:36:00,30.6,9.7,29.99,East,96,3.0,6.0,41,0.00,,,0.00,0168,Weather View 32 v70,2013-02-07 19:36:00,
2013-02-07 14:41:00,30.0,9.1,29.99,East,96,3.0,6.0,41,0.00,,,0.00,0168,Weather View 32 v70,2013-02-07 19:41:00,
2013-02-07 14:46:00,29.6,8.8,29.99,East,96,3.0,6.0,41,0.00,,,0.00,0184,Weather View 32 v70,2013-02-07 19:46:00,
2013-02-07 14:52:00,30.3,10.4,29.99,East,96,2.0,6.0,43,0.00,,,0.00,0168,Weather View 32 v70,2013-02-07 19:52:00,
2013-02-07 14:57:00,29.6,8.8,29.99,East,96,3.0,6.0,41,0.00,,,0.00,0152,Weather View 32 v70,2013-02-07 19:57:00,
2013-02-07 15:02:00,30.7,10.9,29.99,East,96,2.0,6.0,43,0.00,,,0.00,0160,Weather View 32 v70,2013-02-07 20:02:00,
2013-02-07 15:07:00,30.6,10.2,29.99,East,96,1.0,6.0,42,0.00,,,0.00,0152,Weather View 32 v70,2013-02-07 20:07:00,
2013-02-07 15:12:00,30.7,10.9,29.98,East,96,1.0,6.0,43,0.00,,,0.00,0160,Weather View 32 v70,2013-02-07 20:12:00,
2013-02-07 15:17:00,29.8,9.0,29.99,East,96,2.0,6.0,41,0.00,,,0.00,0144,Weather View 32 v70,2013-02-07 20:17:00,
2013-02-07 15:22:00,29.8,8.4,29.98,East,96,4.0,6.0,40,0.00,,,0.00,0120,Weather View 32 v70,2013-02-07 20:22:00,
2013-02-07 15:27:00,29.6,8.8,29.98,East,96,3.0,7.0,41,0.00,,,0.00,0112,Weather View 32 v70,2013-02-07 20:27:00,
2013-02-07 15:32:00,30.3,11.0,29.99,East,96,4.0,7.0,44,0.00,,,0.00,0104,Weather View 32 v70,2013-02-07 20:32:00,
2013-02-07 15:37:00,30.0,9.1,29.98,East,96,4.0,7.0,41,0.00,,,0.00,0088,Weather View 32 v70,2013-02-07 20:37:00,
2013-02-07 15:42:00,30.3,8.3,29.98,East,90,4.0,8.0,39,0.00,,,0.00,0088,Weather View 32 v70,2013-02-07 20:42:00,
2013-02-07 15:47:00,31.1,9.5,29.98,East,84,4.0,8.0,40,0.00,,,0.00,0080,Weather View 32 v70,2013-02-07 20:47:00,
2013-02-07 15:52:00,30.9,9.9,29.98,East,90,5.0,8.0,41,0.00,,,0.00,0064,Weather View 32 v70,2013-02-07 20:52:00,
2013-02-07 15:57:00,30.3,8.3,29.97,East,90,6.0,8.0,39,0.00,,,0.00,0056,Weather View 32 v70,2013-02-07 20:57:00,
2013-02-07 16:02:00,30.3,8.8,29.98,East,90,5.0,8.0,40,0.00,,,0.00,0056,Weather View 32 v70,2013-02-07 21:02:00,
2013-02-07 16:07:00,30.4,9.5,29.98,East,90,5.0,8.0,41,0.00,,,0.00,0048,Weather View 32 v70,2013-02-07 21:07:00,
2013-02-07 16:12:00,30.3,8.8,29.97,East,90,6.0,8.0,40,0.00,,,0.00,0040,Weather View 32 v70,2013-02-07 21:12:00,
2013-02-07 16:17:00,30.2,8.7,29.97,East,90,6.0,8.0,40,0.00,,,0.00,0040,Weather View 32 v70,2013-02-07 21:17:00,
2013-02-07 16:22:00,29.8,7.3,29.97,East,90,5.0,8.0,38,0.00,,,0.00,0040,Weather View 32 v70,2013-02-07 21:22:00,
2013-02-07 16:27:00,30.5,9.0,29.97,East,84,4.0,8.0,40,0.00,,,0.00,0032,Weather View 32 v70,2013-02-07 21:27:00,
2013-02-07 16:32:00,29.8,9.0,29.97,East,90,6.0,10.0,41,0.00,,,0.00,0024,Weather View 32 v70,2013-02-07 21:32:00,
2013-02-07 16:37:00,30.0,9.6,29.97,East,90,7.0,10.0,42,0.00,,,0.00,0024,Weather View 32 v70,2013-02-07 21:37:00,
2013-02-07 16:42:00,29.7,9.4,29.97,East,90,3.0,10.0,42,0.00,,,0.00,0016,Weather View 32 v70,2013-02-07 21:42:00,
2013-02-07 16:47:00,29.4,9.6,29.97,East,90,6.0,10.0,43,0.00,,,0.00,0008,Weather View 32 v70,2013-02-07 21:47:00,
2013-02-07 16:52:00,29.3,9.5,29.97,East,90,5.0,10.0,43,0.00,,,0.00,0008,Weather View 32 v70,2013-02-07 21:52:00,
2013-02-07 16:57:00,29.4,10.6,29.96,East,90,5.0,10.0,45,0.00,,,0.00,0008,Weather View 32 v70,2013-02-07 21:57:00,
2013-02-07 17:02:00,29.7,12.9,29.97,East,90,2.0,10.0,49,0.00,,,0.00,0000,Weather View 32 v70,2013-02-07 22:02:00,
2013-02-07 17:07:00,29.2,10.4,29.97,East,90,6.0,10.0,45,0.00,,,0.00,0000,Weather View 32 v70,2013-02-07 22:07:00,
2013-02-07 17:12:00,29.1,11.8,29.97,East,90,4.0,10.0,48,0.00,,,0.00,0000,Weather View 32 v70,2013-02-07 22:12:00,
2013-02-07 17:17:00,28.7,10.5,29.97,East,90,5.0,10.0,46,0.00,,,0.00,0000,Weather View 32 v70,2013-02-07 22:17:00,
2013-02-07 17:22:00,28.3,9.6,29.97,East,90,4.0,10.0,45,0.00,,,0.00,0000,Weather View 32 v70,2013-02-07 22:22:00,
2013-02-07 17:27:00,28.2,10.5,29.98,East,90,5.0,10.0,47,0.00,,,0.00,0000,Weather View 32 v70,2013-02-07 22:27:00,
2013-02-07 17:32:00,28.5,9.8,29.98,East,90,5.0,10.0,45,0.00,,,0.00,0000,Weather View 32 v70,2013-02-07 22:32:00,
2013-02-07 17:37:00,28.2,9.5,29.98,East,90,7.0,10.0,45,0.00,,,0.00,0000,Weather View 32 v70,2013-02-07 22:37:00,
2013-02-07 17:42:00,28.2,9.5,29.98,East,90,4.0,10.0,45,0.00,,,0.00,0000,Weather View 32 v70,2013-02-07 22:42:00,
2013-02-07 17:47:00,28.2,10.5,29.98,East,90,3.0,10.0,47,0.00,,,0.00,0000,Weather View 32 v70,2013-02-07 22:47:00,
2013-02-07 17:52:00,28.2,11.4,29.98,East,90,4.0,10.0,49,0.00,,,0.00,0000,Weather View 32 v70,2013-02-07 22:52:00,
2013-02-07 17:57:00,28.2,11.0,29.98,East,90,5.0,10.0,48,0.00,,,0.00,0000,Weather View 32 v70,2013-02-07 22:57:00,
2013-02-07 18:02:00,28.0,11.3,29.98,East,84,7.0,10.0,49,0.00,,,0.00,0000,Weather View 32 v70,2013-02-07 23:02:00,
2013-02-07 18:07:00,27.9,11.2,29.98,East,90,8.0,10.0,49,0.00,,,0.00,0000,Weather View 32 v70,2013-02-07 23:07:00,
2013-02-07 18:12:00,27.8,11.1,29.98,East,90,4.0,9.0,49,0.00,,,0.00,0000,Weather View 32 v70,2013-02-07 23:12:00,
2013-02-07 18:17:00,28.0,11.8,29.98,East,90,4.0,9.0,50,0.00,,,0.00,0000,Weather View 32 v70,2013-02-07 23:17:00,
2013-02-07 18:22:00,27.8,12.4,29.98,East,90,4.0,9.0,52,0.00,,,0.00,0000,Weather View 32 v70,2013-02-07 23:22:00,
2013-02-07 18:27:00,27.9,13.0,29.99,East,90,3.0,9.0,53,0.00,,,0.00,0000,Weather View 32 v70,2013-02-07 23:27:00,
2013-02-07 18:32:00,27.9,12.1,29.99,East,84,8.0,10.0,51,0.00,,,0.00,0000,Weather View 32 v70,2013-02-07 23:32:00,
2013-02-07 18:37:00,27.8,12.0,29.99,East,84,5.0,11.0,51,0.00,,,0.00,0000,Weather View 32 v70,2013-02-07 23:37:00,
2013-02-07 18:42:00,27.8,12.4,29.99,East,90,3.0,11.0,52,0.00,,,0.00,0000,Weather View 32 v70,2013-02-07 23:42:00,
2013-02-07 18:47:00,27.6,13.1,29.98,East,84,5.0,11.0,54,0.00,,,0.00,0000,Weather View 32 v70,2013-02-07 23:47:00,
2013-02-07 18:52:00,27.8,13.3,30.00,East,90,6.0,11.0,54,0.00,,,0.00,0000,Weather View 32 v70,2013-02-07 23:52:00,
2013-02-07 18:57:00,27.7,13.2,30.00,East,90,4.0,11.0,54,0.00,,,0.00,0000,Weather View 32 v70,2013-02-07 23:57:00,
2013-02-07 19:02:00,27.8,14.1,30.00,East,90,3.0,11.0,56,0.00,,,0.00,0000,Weather View 32 v70,2013-02-08 00:02:00,
2013-02-07 19:07:00,27.7,14.0,30.01,East,84,4.0,11.0,56,0.00,,,0.00,0000,Weather View 32 v70,2013-02-08 00:07:00,
2013-02-07 19:12:00,27.8,14.1,30.00,East,90,4.0,11.0,56,0.00,,,0.00,0000,Weather View 32 v70,2013-02-08 00:12:00,
2013-02-07 19:17:00,27.6,14.3,30.00,East,90,5.0,11.0,57,0.00,,,0.00,0000,Weather View 32 v70,2013-02-08 00:17:00,
2013-02-07 19:22:00,27.5,14.2,30.00,East,84,4.0,11.0,57,0.00,,,0.00,0000,Weather View 32 v70,2013-02-08 00:22:00,
2013-02-07 19:27:00,27.5,14.6,30.00,East,84,3.0,11.0,58,0.00,,,0.00,0000,Weather View 32 v70,2013-02-08 00:27:00,
2013-02-07 19:32:00,27.6,15.1,30.00,East,84,3.0,11.0,59,0.00,,,0.00,0000,Weather View 32 v70,2013-02-08 00:32:00,
2013-02-07 19:37:00,27.5,15.0,30.00,East,90,4.0,10.0,59,0.00,,,0.00,0000,Weather View 32 v70,2013-02-08 00:37:00,
2013-02-07 19:42:00,27.4,14.9,30.00,East,96,4.0,10.0,59,0.00,,,0.00,0000,Weather View 32 v70,2013-02-08 00:42:00,
2013-02-07 19:47:00,27.7,14.8,30.00,East,84,5.0,10.0,58,0.00,,,0.00,0000,Weather View 32 v70,2013-02-08 00:47:00,
2013-02-07 19:52:00,27.5,15.0,30.00,East,84,5.0,8.0,59,0.00,,,0.00,0000,Weather View 32 v70,2013-02-08 00:52:00,
2013-02-07 19:57:00,27.5,15.0,30.00,East,84,5.0,8.0,59,0.00,,,0.00,0000,Weather View 32 v70,2013-02-08 00:57:00,
2013-02-07 20:02:00,27.4,14.9,30.00,East,90,3.0,8.0,59,0.00,,,0.00,0000,Weather View 32 v70,2013-02-08 01:02:00,
2013-02-07 20:07:00,27.5,15.0,29.99,East,96,5.0,8.0,59,0.00,,,0.00,0000,Weather View 32 v70,2013-02-08 01:07:00,
2013-02-07 20:12:00,27.5,15.8,29.98,East,84,3.0,8.0,61,0.00,,,0.00,0000,Weather View 32 v70,2013-02-08 01:12:00,
2013-02-07 20:17:00,27.4,15.7,29.98,East,90,5.0,8.0,61,0.00,,,0.00,0000,Weather View 32 v70,2013-02-08 01:17:00,
2013-02-07 20:22:00,27.7,15.2,29.98,East,90,7.0,10.0,59,0.00,,,0.00,0000,Weather View 32 v70,2013-02-08 01:22:00,
2013-02-07 20:27:00,27.6,15.1,29.98,East,90,6.0,10.0,59,0.00,,,0.00,0000,Weather View 32 v70,2013-02-08 01:27:00,
2013-02-07 20:32:00,27.7,14.8,29.99,East,84,6.0,10.0,58,0.00,,,0.00,0000,Weather View 32 v70,2013-02-08 01:32:00,
2013-02-07 20:37:00,27.6,15.1,29.99,East,84,5.0,10.0,59,0.00,,,0.00,0000,Weather View 32 v70,2013-02-08 01:37:00,
2013-02-07 20:42:00,27.8,15.3,29.98,East,90,5.0,10.0,59,0.00,,,0.00,0000,Weather View 32 v70,2013-02-08 01:42:00,
2013-02-07 20:47:00,27.5,15.0,29.99,East,90,5.0,10.0,59,0.00,,,0.00,0000,Weather View 32 v70,2013-02-08 01:47:00,
2013-02-07 20:52:00,27.7,15.6,29.98,East,90,4.0,10.0,60,0.00,,,0.00,0000,Weather View 32 v70,2013-02-08 01:52:00,
2013-02-07 20:57:00,27.5,15.4,29.99,East,90,5.0,10.0,60,0.00,,,0.00,0000,Weather View 32 v70,2013-02-08 01:57:00,
2013-02-07 21:02:00,27.6,15.5,29.98,East,90,6.0,10.0,60,0.00,,,0.00,0000,Weather View 32 v70,2013-02-08 02:02:00,
2013-02-07 21:07:00,27.6,15.5,29.99,East,90,4.0,10.0,60,0.00,,,0.00,0000,Weather View 32 v70,2013-02-08 02:07:00,
2013-02-07 21:12:00,27.4,16.8,29.98,East,96,5.0,10.0,64,0.00,,,0.00,0000,Weather View 32 v70,2013-02-08 02:12:00,
2013-02-07 21:17:00,27.5,16.9,29.98,East,90,5.0,10.0,64,0.00,,,0.00,0000,Weather View 32 v70,2013-02-08 02:17:00,
2013-02-07 21:22:00,27.5,16.5,29.99,East,90,5.0,9.0,63,0.00,,,0.00,0000,Weather View 32 v70,2013-02-08 02:22:00,
2013-02-07 21:27:00,27.6,16.6,29.98,East,90,5.0,9.0,63,0.00,,,0.00,0000,Weather View 32 v70,2013-02-08 02:27:00,
2013-02-07 21:32:00,27.6,17.0,29.98,East,90,5.0,8.0,64,0.00,,,0.00,0000,Weather View 32 v70,2013-02-08 02:32:00,
2013-02-07 21:37:00,27.6,17.0,29.98,East,90,4.0,8.0,64,0.00,,,0.00,0000,Weather View 32 v70,2013-02-08 02:37:00,
2013-02-07 21:42:00,27.5,17.2,29.97,East,90,4.0,8.0,65,0.00,,,0.00,0000,Weather View 32 v70,2013-02-08 02:42:00,
2013-02-07 21:48:00,27.7,17.8,29.97,East,90,7.0,9.0,66,0.00,,,0.00,0000,Weather View 32 v70,2013-02-08 02:48:00,
2013-02-07 21:53:00,27.9,18.4,29.97,East,84,7.0,9.0,67,0.00,,,0.00,0000,Weather View 32 v70,2013-02-08 02:53:00,
2013-02-07 21:58:00,27.9,18.4,29.97,East,96,6.0,10.0,67,0.00,,,0.00,0000,Weather View 32 v70,2013-02-08 02:58:00,
2013-02-07 22:03:00,28.2,18.9,29.97,East,84,8.0,11.0,68,0.00,,,0.00,0000,Weather View 32 v70,2013-02-08 03:03:00,
2013-02-07 22:09:00,28.3,19.4,29.97,East,84,5.0,11.0,69,0.00,,,0.00,0000,Weather View 32 v70,2013-02-08 03:09:00,
2013-02-07 22:15:00,28.3,19.4,29.96,East,90,7.0,11.0,69,0.00,,,0.00,0000,Weather View 32 v70,2013-02-08 03:15:00,
2013-02-07 22:20:00,28.3,19.7,29.96,East,90,4.0,11.0,70,0.00,,,0.00,0000,Weather View 32 v70,2013-02-08 03:20:00,
2013-02-07 22:25:00,28.5,19.9,29.95,East,90,5.0,11.0,70,0.00,,,0.00,0000,Weather View 32 v70,2013-02-08 03:25:00,
2013-02-07 22:31:00,28.6,20.7,29.95,East,90,5.0,11.0,72,0.00,,,0.00,0000,Weather View 32 v70,2013-02-08 03:31:00,
2013-02-07 22:36:00,28.7,20.5,29.95,East,90,8.0,11.0,71,0.00,,,0.00,0000,Weather View 32 v70,2013-02-08 03:36:00,
2013-02-07 22:41:00,28.9,21.0,29.95,East,90,4.0,11.0,72,0.00,,,0.00,0000,Weather View 32 v70,2013-02-08 03:41:00,
2013-02-07 22:47:00,28.9,21.0,29.95,East,90,5.0,11.0,72,0.00,,,0.00,0000,Weather View 32 v70,2013-02-08 03:47:00,
2013-02-07 22:53:00,29.1,21.5,29.95,East,90,3.0,11.0,73,0.00,,,0.00,0000,Weather View 32 v70,2013-02-08 03:53:00,
2013-02-07 22:58:00,29.2,21.6,29.94,East,90,7.0,11.0,73,0.00,,,0.00,0000,Weather View 32 v70,2013-02-08 03:58:00,
2013-02-07 23:05:00,29.2,21.6,29.93,East,90,7.0,11.0,73,0.00,,,0.00,0000,Weather View 32 v70,2013-02-08 04:05:00,
2013-02-07 23:10:00,29.3,22.0,29.93,East,90,4.0,11.0,74,0.00,,,0.00,0000,Weather View 32 v70,2013-02-08 04:10:00,
2013-02-07 23:15:00,29.4,22.1,29.93,East,90,6.0,11.0,74,0.00,,,0.00,0000,Weather View 32 v70,2013-02-08 04:15:00,
2013-02-07 23:21:00,29.6,22.3,29.92,East,90,5.0,11.0,74,0.00,,,0.00,0000,Weather View 32 v70,2013-02-08 04:21:00,
2013-02-07 23:26:00,29.8,22.6,29.92,East,90,8.0,11.0,74,0.00,,,0.00,0000,Weather View 32 v70,2013-02-08 04:26:00,
2013-02-07 23:32:00,29.8,22.9,29.92,East,90,5.0,11.0,75,0.00,,,0.00,0000,Weather View 32 v70,2013-02-08 04:32:00,
2013-02-07 23:37:00,29.8,23.2,29.92,East,90,8.0,13.0,76,0.00,,,0.00,0000,Weather View 32 v70,2013-02-08 04:37:00,
2013-02-07 23:43:00,30.1,23.1,29.91,East,90,7.0,13.0,75,0.00,,,0.00,0000,Weather View 32 v70,2013-02-08 04:43:00,
2013-02-07 23:48:00,30.4,23.4,29.91,East,90,8.0,13.0,75,0.00,,,0.00,0000,Weather View 32 v70,2013-02-08 04:48:00,
2013-02-07 23:53:00,30.4,23.4,29.91,East,90,7.0,13.0,75,0.00,,,0.00,0000,Weather View 32 v70,2013-02-08 04:53:00,
2013-02-07 23:58:00,30.3,23.3,29.91,East,90,5.0,13.0,75,0.00,,,0.00,0000,Weather View 32 v70,2013-02-08 04:58:00,